owner,sensor,date,latitude,longitude,vertical_datum,wind_speed,wind_to_direction,wind_speed_of_gust,qcFlag 
LUMCON,ioos:station:LUMCON:101:1,2015-04-15T06:00:00Z,29.2533,-90.6633,1.0,-9999.0,127.0,-9999.0,'1111122,1111122,1111122' 
LUMCON,ioos:station:LUMCON:101:1,2015-04-15T06:15:00Z,29.2533,-90.6633,1.0,-9999.0,136.0,-9999.0,'1111122,1111122,1111122' 
LUMCON,ioos:station:LUMCON:101:1,2015-04-15T06:30:00Z,29.2533,-90.6633,1.0,-9999.0,316.0,-9999.0,'1111122,1111122,1111122' 
LUMCON,ioos:station:LUMCON:101:1,2015-04-15T06:45:00Z,29.2533,-90.6633,1.0,3.5,30.0,-9999.0,'1111122,1111122,1111122' 
LUMCON,ioos:station:LUMCON:101:1,2015-04-15T13:00:00Z,29.2533,-90.6633,1.0,-9999.0,194.0,-9999.0,'1111122,1111122,1111122' 
LUMCON,ioos:station:LUMCON:101:1,2015-04-15T13:15:00Z,29.2533,-90.6633,1.0,-9999.0,217.0,-9999.0,'1111122,1111122,1111122' 
LUMCON,ioos:station:LUMCON:101:1,2015-04-15T13:30:00Z,29.2533,-90.6633,1.0,-9999.0,184.0,-9999.0,'1111122,1111122,1111122' 
LUMCON,ioos:station:LUMCON:101:1,2015-04-15T13:45:00Z,29.2533,-90.6633,1.0,10.5,200.0,-9999.0,'1111122,1111122,1111122' 
LUMCON,ioos:station:LUMCON:101:1,2015-04-16T01:00:00Z,29.2533,-90.6633,1.0,-9999.0,138.0,-9999.0,'1111122,1111122,1111122' 
LUMCON,ioos:station:LUMCON:101:1,2015-04-16T01:15:00Z,29.2533,-90.6633,1.0,-9999.0,144.0,-9999.0,'1111122,1111122,1111122' 
LUMCON,ioos:station:LUMCON:101:1,2015-04-16T01:30:00Z,29.2533,-90.6633,1.0,-9999.0,140.0,-9999.0,'1111122,1111122,1111122' 
LUMCON,ioos:station:LUMCON:101:1,2015-04-16T01:45:00Z,29.2533,-90.6633,1.0,12.7,138.0,-9999.0,'1111122,1111122,1111122' 
LUMCON,ioos:station:LUMCON:101:1,2015-04-16T04:00:00Z,29.2533,-90.6633,1.0,-9999.0,125.0,-9999.0,'1111122,1111122,1111122' 
LUMCON,ioos:station:LUMCON:101:1,2015-04-16T04:15:00Z,29.2533,-90.6633,1.0,-9999.0,118.0,-9999.0,'1111122,1111122,1111122' 
LUMCON,ioos:station:LUMCON:101:1,2015-04-16T04:45:00Z,29.2533,-90.6633,1.0,10.5,133.0,-9999.0,'1111122,1111122,1111122' 
LUMCON,ioos:station:LUMCON:101:1,2015-04-16T06:00:00Z,29.2533,-90.6633,1.0,-9999.0,117.0,-9999.0,'1111122,1111122,1111122' 
LUMCON,ioos:station:LUMCON:101:1,2015-04-16T06:15:00Z,29.2533,-90.6633,1.0,-9999.0,137.0,-9999.0,'1111122,1111122,1111122' 
LUMCON,ioos:station:LUMCON:101:1,2015-04-16T06:30:00Z,29.2533,-90.6633,1.0,-9999.0,134.0,-9999.0,'1111122,1111122,1111122' 
LUMCON,ioos:station:LUMCON:101:1,2015-04-16T06:45:00Z,29.2533,-90.6633,1.0,-9999.0,132.0,-9999.0,'1111122,1111122,1111122' 
LUMCON,ioos:station:LUMCON:101:1,2015-04-16T07:00:00Z,29.2533,-90.6633,1.0,-9999.0,147.0,-9999.0,'1111122,1111122,1111122' 
LUMCON,ioos:station:LUMCON:101:1,2015-04-16T07:15:00Z,29.2533,-90.6633,1.0,-9999.0,149.0,-9999.0,'1111122,1111122,1111122' 
LUMCON,ioos:station:LUMCON:101:1,2015-04-16T07:30:00Z,29.2533,-90.6633,1.0,-9999.0,145.0,-9999.0,'1111122,1111122,1111122' 
LUMCON,ioos:station:LUMCON:101:1,2015-04-16T07:45:00Z,29.2533,-90.6633,1.0,-9999.0,145.0,-9999.0,'1111122,1111122,1111122' 
LUMCON,ioos:station:LUMCON:101:1,2015-04-16T08:00:00Z,29.2533,-90.6633,1.0,-9999.0,147.0,-9999.0,'1111122,1111122,1111122' 
LUMCON,ioos:station:LUMCON:101:1,2015-04-16T08:15:00Z,29.2533,-90.6633,1.0,-9999.0,179.0,-9999.0,'1111122,1111122,1111122' 
LUMCON,ioos:station:LUMCON:101:1,2015-04-16T08:30:00Z,29.2533,-90.6633,1.0,-9999.0,172.0,-9999.0,'1111122,1111122,1111122' 
LUMCON,ioos:station:LUMCON:101:1,2015-04-16T08:45:00Z,29.2533,-90.6633,1.0,-9999.0,155.0,-9999.0,'1111122,1111122,1111122' 
LUMCON,ioos:station:LUMCON:101:1,2015-04-16T09:00:00Z,29.2533,-90.6633,1.0,-9999.0,171.0,-9999.0,'1111122,1111122,1111122' 
LUMCON,ioos:station:LUMCON:101:1,2015-04-16T09:15:00Z,29.2533,-90.6633,1.0,-9999.0,167.0,-9999.0,'1111122,1111122,1111122' 
LUMCON,ioos:station:LUMCON:101:1,2015-04-16T09:30:00Z,29.2533,-90.6633,1.0,-9999.0,148.0,-9999.0,'1111122,1111122,1111122' 
LUMCON,ioos:station:LUMCON:101:1,2015-04-16T09:45:00Z,29.2533,-90.6633,1.0,9.3,151.0,-9999.0,'1111122,1111122,1111122' 
LUMCON,ioos:station:LUMCON:101:1,2015-04-16T12:00:00Z,29.2533,-90.6633,1.0,-9999.0,143.0,-9999.0,'1111122,1111122,1111122' 
LUMCON,ioos:station:LUMCON:101:1,2015-04-16T12:15:00Z,29.2533,-90.6633,1.0,-9999.0,146.0,-9999.0,'1111122,1111122,1111122' 
LUMCON,ioos:station:LUMCON:101:1,2015-04-16T12:30:00Z,29.2533,-90.6633,1.0,-9999.0,138.0,-9999.0,'1111122,1111122,1111122' 
LUMCON,ioos:station:LUMCON:101:1,2015-04-16T12:45:00Z,29.2533,-90.6633,1.0,11.8,137.0,-9999.0,'1111122,1111122,1111122' 
LUMCON,ioos:station:LUMCON:101:1,2015-04-16T13:00:00Z,29.2533,-90.6633,1.0,-9999.0,132.0,-9999.0,'1111122,1111122,1111122' 
LUMCON,ioos:station:LUMCON:101:1,2015-04-16T13:15:00Z,29.2533,-90.6633,1.0,-9999.0,122.0,-9999.0,'1111122,1111122,1111122' 
LUMCON,ioos:station:LUMCON:101:1,2015-04-16T13:30:00Z,29.2533,-90.6633,1.0,-9999.0,123.0,-9999.0,'1111122,1111122,1111122' 
LUMCON,ioos:station:LUMCON:101:1,2015-04-16T13:45:00Z,29.2533,-90.6633,1.0,15.6,123.0,-9999.0,'1111122,1111122,1111122' 
LUMCON,ioos:station:LUMCON:101:1,2015-04-16T14:00:00Z,29.2533,-90.6633,1.0,-9999.0,123.0,-9999.0,'1111122,1111122,1111122' 
LUMCON,ioos:station:LUMCON:101:1,2015-04-16T14:15:00Z,29.2533,-90.6633,1.0,-9999.0,134.0,-9999.0,'1111122,1111122,1111122' 
LUMCON,ioos:station:LUMCON:101:1,2015-04-16T14:30:00Z,29.2533,-90.6633,1.0,-9999.0,128.0,-9999.0,'1111122,1111122,1111122' 
LUMCON,ioos:station:LUMCON:101:1,2015-04-16T14:45:00Z,29.2533,-90.6633,1.0,14.8,124.0,-9999.0,'1111122,1111122,1111122' 
LUMCON,ioos:station:LUMCON:101:1,2015-04-16T15:00:00Z,29.2533,-90.6633,1.0,-9999.0,134.0,-9999.0,'1111122,1111122,1111122' 
LUMCON,ioos:station:LUMCON:101:1,2015-04-16T15:15:00Z,29.2533,-90.6633,1.0,-9999.0,139.0,-9999.0,'1111122,1111122,1111122' 
LUMCON,ioos:station:LUMCON:101:1,2015-04-16T15:30:00Z,29.2533,-90.6633,1.0,-9999.0,126.0,-9999.0,'1111122,1111122,1111122' 
LUMCON,ioos:station:LUMCON:101:1,2015-04-16T15:45:00Z,29.2533,-90.6633,1.0,6.8,129.0,-9999.0,'1111122,1111122,1111122' 
LUMCON,ioos:station:LUMCON:101:1,2015-04-16T16:00:00Z,29.2533,-90.6633,1.0,-9999.0,131.0,-9999.0,'1111122,1111122,1111122' 
LUMCON,ioos:station:LUMCON:101:1,2015-04-16T16:15:00Z,29.2533,-90.6633,1.0,-9999.0,134.0,-9999.0,'1111122,1111122,1111122' 
LUMCON,ioos:station:LUMCON:101:1,2015-04-16T16:30:00Z,29.2533,-90.6633,1.0,-9999.0,120.0,-9999.0,'1111122,1111122,1111122' 
LUMCON,ioos:station:LUMCON:101:1,2015-04-16T16:45:00Z,29.2533,-90.6633,1.0,5.3,111.0,-9999.0,'1111122,1111122,1111122' 
LUMCON,ioos:station:LUMCON:101:1,2015-04-16T17:00:00Z,29.2533,-90.6633,1.0,-9999.0,95.0,-9999.0,'1111122,1111122,1111122' 
LUMCON,ioos:station:LUMCON:101:1,2015-04-16T17:15:00Z,29.2533,-90.6633,1.0,-9999.0,112.0,-9999.0,'1111122,1111122,1111122' 
LUMCON,ioos:station:LUMCON:101:1,2015-04-16T17:30:00Z,29.2533,-90.6633,1.0,-9999.0,103.0,-9999.0,'1111122,1111122,1111122' 
LUMCON,ioos:station:LUMCON:101:1,2015-04-16T17:45:00Z,29.2533,-90.6633,1.0,6.9,93.0,-9999.0,'1111122,1111122,1111122' 
LUMCON,ioos:station:LUMCON:101:1,2015-04-16T18:00:00Z,29.2533,-90.6633,1.0,-9999.0,50.0,-9999.0,'1111122,1111122,1111122' 
LUMCON,ioos:station:LUMCON:101:1,2015-04-16T18:15:00Z,29.2533,-90.6633,1.0,-9999.0,61.0,-9999.0,'1111122,1111122,1111122' 
LUMCON,ioos:station:LUMCON:101:1,2015-04-16T18:30:00Z,29.2533,-90.6633,1.0,-9999.0,49.0,-9999.0,'1111122,1111122,1111122' 
LUMCON,ioos:station:LUMCON:101:1,2015-04-16T18:45:00Z,29.2533,-90.6633,1.0,9.3,48.0,-9999.0,'1111122,1111122,1111122' 
LUMCON,ioos:station:LUMCON:101:1,2015-04-16T19:00:00Z,29.2533,-90.6633,1.0,-9999.0,57.0,-9999.0,'1111122,1111122,1111122' 
LUMCON,ioos:station:LUMCON:101:1,2015-04-16T19:15:00Z,29.2533,-90.6633,1.0,-9999.0,42.0,-9999.0,'1111122,1111122,1111122' 
LUMCON,ioos:station:LUMCON:101:1,2015-04-16T19:30:00Z,29.2533,-90.6633,1.0,-9999.0,42.0,-9999.0,'1111122,1111122,1111122' 
LUMCON,ioos:station:LUMCON:101:1,2015-04-16T19:45:00Z,29.2533,-90.6633,1.0,14.8,31.0,-9999.0,'1111122,1111122,1111122' 
LUMCON,ioos:station:LUMCON:101:1,2015-04-16T20:00:00Z,29.2533,-90.6633,1.0,-9999.0,32.0,-9999.0,'1111122,1111122,1111122' 
LUMCON,ioos:station:LUMCON:101:1,2015-04-16T20:15:00Z,29.2533,-90.6633,1.0,-9999.0,29.0,-9999.0,'1111122,1111122,1111122' 
LUMCON,ioos:station:LUMCON:101:1,2015-04-16T20:45:00Z,29.2533,-90.6633,1.0,25.0,7.0,-9999.0,'1111122,1111122,1111122' 
LUMCON,ioos:station:LUMCON:101:1,2015-04-16T21:00:00Z,29.2533,-90.6633,1.0,-9999.0,349.0,-9999.0,'1111122,1111122,1111122' 
LUMCON,ioos:station:LUMCON:101:1,2015-04-16T21:15:00Z,29.2533,-90.6633,1.0,-9999.0,12.0,-9999.0,'1111122,1111122,1111122' 
LUMCON,ioos:station:LUMCON:101:1,2015-04-16T21:30:00Z,29.2533,-90.6633,1.0,-9999.0,0.0,-9999.0,'1111122,1114422,1111122' 
LUMCON,ioos:station:LUMCON:101:1,2015-04-16T21:45:00Z,29.2533,-90.6633,1.0,16.7,0.0,-9999.0,'1111122,1114422,1111122' 
LUMCON,ioos:station:LUMCON:101:1,2015-04-16T22:00:00Z,29.2533,-90.6633,1.0,-9999.0,27.0,-9999.0,'1111122,1111122,1111122' 
LUMCON,ioos:station:LUMCON:101:1,2015-04-16T22:15:00Z,29.2533,-90.6633,1.0,-9999.0,7.0,-9999.0,'1111122,1111122,1111122' 
LUMCON,ioos:station:LUMCON:101:1,2015-04-16T22:30:00Z,29.2533,-90.6633,1.0,-9999.0,15.0,-9999.0,'1111122,1111122,1111122' 
LUMCON,ioos:station:LUMCON:101:1,2015-04-16T22:45:00Z,29.2533,-90.6633,1.0,17.9,16.0,-9999.0,'1111122,1111122,1111122' 
LUMCON,ioos:station:LUMCON:101:1,2015-04-16T23:00:00Z,29.2533,-90.6633,1.0,-9999.0,28.0,-9999.0,'1111122,1111122,1111122' 
LUMCON,ioos:station:LUMCON:101:1,2015-04-16T23:15:00Z,29.2533,-90.6633,1.0,-9999.0,22.0,-9999.0,'1111122,1111122,1111122' 
LUMCON,ioos:station:LUMCON:101:1,2015-04-16T23:30:00Z,29.2533,-90.6633,1.0,-9999.0,24.0,-9999.0,'1111122,1111122,1111122' 
LUMCON,ioos:station:LUMCON:101:1,2015-04-16T23:45:00Z,29.2533,-90.6633,1.0,13.1,47.0,-9999.0,'1111122,1111122,1111122' 
LUMCON,ioos:station:LUMCON:101:1,2015-04-17T00:00:00Z,29.2533,-90.6633,1.0,-9999.0,33.0,-9999.0,'1111122,1111122,1111122' 
LUMCON,ioos:station:LUMCON:101:1,2015-04-17T00:15:00Z,29.2533,-90.6633,1.0,-9999.0,50.0,-9999.0,'1111122,1111122,1111122' 
LUMCON,ioos:station:LUMCON:101:1,2015-04-17T00:30:00Z,29.2533,-90.6633,1.0,-9999.0,65.0,-9999.0,'1111122,1111122,1111122' 
LUMCON,ioos:station:LUMCON:101:1,2015-04-17T00:45:00Z,29.2533,-90.6633,1.0,6.7,31.0,-9999.0,'1111122,1111122,1111122' 
LUMCON,ioos:station:LUMCON:101:1,2015-04-17T01:00:00Z,29.2533,-90.6633,1.0,-9999.0,23.0,-9999.0,'1111122,1111122,1111122' 
LUMCON,ioos:station:LUMCON:101:1,2015-04-17T01:15:00Z,29.2533,-90.6633,1.0,-9999.0,21.0,-9999.0,'1111122,1111122,1111122' 
LUMCON,ioos:station:LUMCON:101:1,2015-04-17T01:30:00Z,29.2533,-90.6633,1.0,-9999.0,17.0,-9999.0,'1111122,1111122,1111122' 
LUMCON,ioos:station:LUMCON:101:1,2015-04-17T01:45:00Z,29.2533,-90.6633,1.0,14.2,22.0,-9999.0,'1111122,1111122,1111122' 
LUMCON,ioos:station:LUMCON:101:1,2015-04-17T02:00:00Z,29.2533,-90.6633,1.0,-9999.0,38.0,-9999.0,'1111122,1111122,1111122' 
LUMCON,ioos:station:LUMCON:101:1,2015-04-17T02:15:00Z,29.2533,-90.6633,1.0,-9999.0,32.0,-9999.0,'1111122,1111122,1111122' 
LUMCON,ioos:station:LUMCON:101:1,2015-04-17T02:30:00Z,29.2533,-90.6633,1.0,-9999.0,41.0,-9999.0,'1111122,1111122,1111122' 
LUMCON,ioos:station:LUMCON:101:1,2015-04-17T02:45:00Z,29.2533,-90.6633,1.0,13.1,48.0,-9999.0,'1111122,1111122,1111122' 
LUMCON,ioos:station:LUMCON:101:1,2015-04-17T03:00:00Z,29.2533,-90.6633,1.0,-9999.0,49.0,-9999.0,'1111122,1111122,1111122' 
LUMCON,ioos:station:LUMCON:101:1,2015-04-17T03:15:00Z,29.2533,-90.6633,1.0,-9999.0,43.0,-9999.0,'1111122,1111122,1111122' 
LUMCON,ioos:station:LUMCON:101:1,2015-04-17T03:30:00Z,29.2533,-90.6633,1.0,-9999.0,43.0,-9999.0,'1111122,1111122,1111122' 
LUMCON,ioos:station:LUMCON:101:1,2015-04-17T03:45:00Z,29.2533,-90.6633,1.0,11.5,45.0,-9999.0,'1111122,1111122,1111122' 
LUMCON,ioos:station:LUMCON:101:1,2015-04-17T04:00:00Z,29.2533,-90.6633,1.0,-9999.0,53.0,-9999.0,'1111122,1111122,1111122' 
LUMCON,ioos:station:LUMCON:101:1,2015-04-17T04:15:00Z,29.2533,-90.6633,1.0,-9999.0,67.0,-9999.0,'1111122,1111122,1111122' 
LUMCON,ioos:station:LUMCON:101:1,2015-04-17T04:30:00Z,29.2533,-90.6633,1.0,-9999.0,61.0,-9999.0,'1111122,1111122,1111122' 
LUMCON,ioos:station:LUMCON:101:1,2015-04-17T04:45:00Z,29.2533,-90.6633,1.0,7.5,74.0,-9999.0,'1111122,1111122,1111122' 
LUMCON,ioos:station:LUMCON:101:1,2015-04-17T05:00:00Z,29.2533,-90.6633,1.0,-9999.0,71.0,-9999.0,'1111122,1111122,1111122' 
LUMCON,ioos:station:LUMCON:101:1,2015-04-17T05:15:00Z,29.2533,-90.6633,1.0,-9999.0,59.0,-9999.0,'1111122,1111122,1111122' 
LUMCON,ioos:station:LUMCON:101:1,2015-04-17T05:30:00Z,29.2533,-90.6633,1.0,-9999.0,62.0,-9999.0,'1111122,1111122,1111122' 
LUMCON,ioos:station:LUMCON:101:1,2015-04-17T05:45:00Z,29.2533,-90.6633,1.0,4.2,359.0,-9999.0,'1111122,1111122,1111122' 
LUMCON,ioos:station:LUMCON:101:1,2015-04-17T06:00:00Z,29.2533,-90.6633,1.0,-9999.0,3.0,-9999.0,'1111122,1111122,1111122' 
LUMCON,ioos:station:LUMCON:101:1,2015-04-17T06:15:00Z,29.2533,-90.6633,1.0,-9999.0,344.0,-9999.0,'1111122,1111122,1111122' 
LUMCON,ioos:station:LUMCON:101:1,2015-04-17T06:30:00Z,29.2533,-90.6633,1.0,-9999.0,351.0,-9999.0,'1111122,1111122,1111122' 
LUMCON,ioos:station:LUMCON:101:1,2015-04-17T06:45:00Z,29.2533,-90.6633,1.0,9.7,350.0,-9999.0,'1111122,1111122,1111122' 
LUMCON,ioos:station:LUMCON:101:1,2015-04-17T07:00:00Z,29.2533,-90.6633,1.0,-9999.0,351.0,-9999.0,'1111122,1111122,1111122' 
LUMCON,ioos:station:LUMCON:101:1,2015-04-17T07:15:00Z,29.2533,-90.6633,1.0,-9999.0,29.0,-9999.0,'1111122,1111122,1111122' 
LUMCON,ioos:station:LUMCON:101:1,2015-04-17T07:30:00Z,29.2533,-90.6633,1.0,-9999.0,16.0,-9999.0,'1111122,1111122,1111122' 
LUMCON,ioos:station:LUMCON:101:1,2015-04-17T07:45:00Z,29.2533,-90.6633,1.0,3.7,38.0,-9999.0,'1111122,1111122,1111122' 
LUMCON,ioos:station:LUMCON:101:1,2015-04-17T08:00:00Z,29.2533,-90.6633,1.0,-9999.0,346.0,-9999.0,'1111122,1111122,1111122' 
LUMCON,ioos:station:LUMCON:101:1,2015-04-17T08:15:00Z,29.2533,-90.6633,1.0,-9999.0,3.0,-9999.0,'1111122,1111122,1111122' 
LUMCON,ioos:station:LUMCON:101:1,2015-04-17T08:30:00Z,29.2533,-90.6633,1.0,3.6,35.0,-9999.0,'1111122,1111122,1111122' 
LUMCON,ioos:station:LUMCON:101:1,2015-04-17T09:00:00Z,29.2533,-90.6633,1.0,-9999.0,106.0,-9999.0,'1111122,1111122,1111122' 
LUMCON,ioos:station:LUMCON:101:1,2015-04-17T09:15:00Z,29.2533,-90.6633,1.0,-9999.0,103.0,-9999.0,'1111122,1111122,1111122' 
LUMCON,ioos:station:LUMCON:101:1,2015-04-17T09:30:00Z,29.2533,-90.6633,1.0,-9999.0,118.0,-9999.0,'1111122,1111122,1111122' 
LUMCON,ioos:station:LUMCON:101:1,2015-04-17T09:45:00Z,29.2533,-90.6633,1.0,14.2,134.0,-9999.0,'1111122,1111122,1111122' 
LUMCON,ioos:station:LUMCON:101:1,2015-04-17T10:00:00Z,29.2533,-90.6633,1.0,-9999.0,140.0,-9999.0,'1111122,1111122,1111122' 
LUMCON,ioos:station:LUMCON:101:1,2015-04-17T10:15:00Z,29.2533,-90.6633,1.0,-9999.0,136.0,-9999.0,'1111122,1111122,1111122' 
LUMCON,ioos:station:LUMCON:101:1,2015-04-17T10:30:00Z,29.2533,-90.6633,1.0,-9999.0,131.0,-9999.0,'1111122,1111122,1111122' 
LUMCON,ioos:station:LUMCON:101:1,2015-04-17T10:45:00Z,29.2533,-90.6633,1.0,12.2,131.0,-9999.0,'1111122,1111122,1111122' 
LUMCON,ioos:station:LUMCON:101:1,2015-04-17T11:00:00Z,29.2533,-90.6633,1.0,-9999.0,130.0,-9999.0,'1111122,1111122,1111122' 
LUMCON,ioos:station:LUMCON:101:1,2015-04-17T11:15:00Z,29.2533,-90.6633,1.0,-9999.0,131.0,-9999.0,'1111122,1111122,1111122' 
LUMCON,ioos:station:LUMCON:101:1,2015-04-17T11:30:00Z,29.2533,-90.6633,1.0,-9999.0,138.0,-9999.0,'1111122,1111122,1111122' 
LUMCON,ioos:station:LUMCON:101:1,2015-04-17T11:45:00Z,29.2533,-90.6633,1.0,9.1,146.0,-9999.0,'1111122,1111122,1111122' 
LUMCON,ioos:station:LUMCON:101:1,2015-04-17T12:00:00Z,29.2533,-90.6633,1.0,-9999.0,132.0,-9999.0,'1111122,1111122,1111122' 
LUMCON,ioos:station:LUMCON:101:1,2015-04-17T12:15:00Z,29.2533,-90.6633,1.0,-9999.0,145.0,-9999.0,'1111122,1111122,1111122' 
LUMCON,ioos:station:LUMCON:101:1,2015-04-17T12:30:00Z,29.2533,-90.6633,1.0,-9999.0,140.0,-9999.0,'1111122,1111122,1111122' 
LUMCON,ioos:station:LUMCON:101:1,2015-04-17T12:45:00Z,29.2533,-90.6633,1.0,4.6,114.0,-9999.0,'1111122,1111122,1111122' 
LUMCON,ioos:station:LUMCON:101:1,2015-04-17T13:00:00Z,29.2533,-90.6633,1.0,-9999.0,123.0,-9999.0,'1111122,1111122,1111122' 
LUMCON,ioos:station:LUMCON:101:1,2015-04-17T13:15:00Z,29.2533,-90.6633,1.0,-9999.0,112.0,-9999.0,'1111122,1111122,1111122' 
LUMCON,ioos:station:LUMCON:101:1,2015-04-17T13:30:00Z,29.2533,-90.6633,1.0,-9999.0,108.0,-9999.0,'1111122,1111122,1111122' 
LUMCON,ioos:station:LUMCON:101:1,2015-04-17T13:45:00Z,29.2533,-90.6633,1.0,4.2,184.0,-9999.0,'1111122,1111122,1111122' 
LUMCON,ioos:station:LUMCON:101:1,2015-04-17T14:00:00Z,29.2533,-90.6633,1.0,-9999.0,209.0,-9999.0,'1111122,1111122,1111122' 
LUMCON,ioos:station:LUMCON:101:1,2015-04-17T14:15:00Z,29.2533,-90.6633,1.0,-9999.0,221.0,-9999.0,'1111122,1111122,1111122' 
LUMCON,ioos:station:LUMCON:101:1,2015-04-17T14:30:00Z,29.2533,-90.6633,1.0,-9999.0,222.0,-9999.0,'1111122,1111122,1111122' 
LUMCON,ioos:station:LUMCON:101:1,2015-04-17T14:45:00Z,29.2533,-90.6633,1.0,5.5,265.0,-9999.0,'1111122,1111122,1111122' 
LUMCON,ioos:station:LUMCON:101:1,2015-04-17T15:00:00Z,29.2533,-90.6633,1.0,-9999.0,329.0,-9999.0,'1111122,1111122,1111122' 
LUMCON,ioos:station:LUMCON:101:1,2015-04-17T15:15:00Z,29.2533,-90.6633,1.0,-9999.0,309.0,-9999.0,'1111122,1111122,1111122' 
LUMCON,ioos:station:LUMCON:101:1,2015-04-17T15:30:00Z,29.2533,-90.6633,1.0,-9999.0,305.0,-9999.0,'1111122,1111122,1111122' 
LUMCON,ioos:station:LUMCON:101:1,2015-04-17T15:45:00Z,29.2533,-90.6633,1.0,9.2,293.0,-9999.0,'1111122,1111122,1111122' 
LUMCON,ioos:station:LUMCON:101:1,2015-04-17T16:00:00Z,29.2533,-90.6633,1.0,-9999.0,312.0,-9999.0,'1111122,1111122,1111122' 
LUMCON,ioos:station:LUMCON:101:1,2015-04-17T16:15:00Z,29.2533,-90.6633,1.0,-9999.0,316.0,-9999.0,'1111122,1111122,1111122' 
LUMCON,ioos:station:LUMCON:101:1,2015-04-17T16:30:00Z,29.2533,-90.6633,1.0,-9999.0,309.0,-9999.0,'1111122,1111122,1111122' 
LUMCON,ioos:station:LUMCON:101:1,2015-04-17T16:45:00Z,29.2533,-90.6633,1.0,8.6,328.0,-9999.0,'1111122,1111122,1111122' 
LUMCON,ioos:station:LUMCON:101:1,2015-04-17T17:00:00Z,29.2533,-90.6633,1.0,-9999.0,348.0,-9999.0,'1111122,1111122,1111122' 
LUMCON,ioos:station:LUMCON:101:1,2015-04-17T17:15:00Z,29.2533,-90.6633,1.0,-9999.0,329.0,-9999.0,'1111122,1111122,1111122' 
LUMCON,ioos:station:LUMCON:101:1,2015-04-17T17:30:00Z,29.2533,-90.6633,1.0,-9999.0,338.0,-9999.0,'1111122,1111122,1111122' 
LUMCON,ioos:station:LUMCON:101:1,2015-04-17T17:45:00Z,29.2533,-90.6633,1.0,4.8,111.0,-9999.0,'1111122,1111122,1111122' 
LUMCON,ioos:station:LUMCON:101:1,2015-04-17T18:00:00Z,29.2533,-90.6633,1.0,-9999.0,125.0,-9999.0,'1111122,1111122,1111122' 
LUMCON,ioos:station:LUMCON:101:1,2015-04-17T18:15:00Z,29.2533,-90.6633,1.0,-9999.0,116.0,-9999.0,'1111122,1111122,1111122' 
LUMCON,ioos:station:LUMCON:101:1,2015-04-17T18:30:00Z,29.2533,-90.6633,1.0,-9999.0,35.0,-9999.0,'1111122,1111122,1111122' 
LUMCON,ioos:station:LUMCON:101:1,2015-04-17T18:45:00Z,29.2533,-90.6633,1.0,2.7,79.0,-9999.0,'1111122,1111122,1111122' 
LUMCON,ioos:station:LUMCON:101:1,2015-04-17T19:00:00Z,29.2533,-90.6633,1.0,-9999.0,116.0,-9999.0,'1111122,1111122,1111122' 
LUMCON,ioos:station:LUMCON:101:1,2015-04-17T19:15:00Z,29.2533,-90.6633,1.0,-9999.0,116.0,-9999.0,'1111122,1111122,1111122' 
LUMCON,ioos:station:LUMCON:101:1,2015-04-17T19:30:00Z,29.2533,-90.6633,1.0,-9999.0,129.0,-9999.0,'1111122,1111122,1111122' 
LUMCON,ioos:station:LUMCON:101:1,2015-04-17T19:45:00Z,29.2533,-90.6633,1.0,3.6,123.0,-9999.0,'1111122,1111122,1111122' 
LUMCON,ioos:station:LUMCON:101:1,2015-04-17T20:00:00Z,29.2533,-90.6633,1.0,-9999.0,135.0,-9999.0,'1111122,1111122,1111122' 
LUMCON,ioos:station:LUMCON:101:1,2015-04-17T20:15:00Z,29.2533,-90.6633,1.0,-9999.0,116.0,-9999.0,'1111122,1111122,1111122' 
LUMCON,ioos:station:LUMCON:101:1,2015-04-17T20:30:00Z,29.2533,-90.6633,1.0,-9999.0,106.0,-9999.0,'1111122,1111122,1111122' 
LUMCON,ioos:station:LUMCON:101:1,2015-04-17T20:45:00Z,29.2533,-90.6633,1.0,5.5,94.0,-9999.0,'1111122,1111122,1111122' 
LUMCON,ioos:station:LUMCON:101:1,2015-04-17T21:00:00Z,29.2533,-90.6633,1.0,-9999.0,93.0,-9999.0,'1111122,1111122,1111122' 
LUMCON,ioos:station:LUMCON:101:1,2015-04-17T21:15:00Z,29.2533,-90.6633,1.0,-9999.0,96.0,-9999.0,'1111122,1111122,1111122' 
LUMCON,ioos:station:LUMCON:101:1,2015-04-17T21:30:00Z,29.2533,-90.6633,1.0,-9999.0,95.0,-9999.0,'1111122,1111122,1111122' 
LUMCON,ioos:station:LUMCON:101:1,2015-04-17T21:45:00Z,29.2533,-90.6633,1.0,6.6,98.0,-9999.0,'1111122,1111122,1111122' 
LUMCON,ioos:station:LUMCON:101:1,2015-04-17T22:00:00Z,29.2533,-90.6633,1.0,-9999.0,89.0,-9999.0,'1111122,1111122,1111122' 
LUMCON,ioos:station:LUMCON:101:1,2015-04-17T22:15:00Z,29.2533,-90.6633,1.0,-9999.0,98.0,-9999.0,'1111122,1111122,1111122' 
LUMCON,ioos:station:LUMCON:101:1,2015-04-17T22:30:00Z,29.2533,-90.6633,1.0,-9999.0,92.0,-9999.0,'1111122,1111122,1111122' 
LUMCON,ioos:station:LUMCON:101:1,2015-04-17T22:45:00Z,29.2533,-90.6633,1.0,5.5,88.0,-9999.0,'1111122,1111122,1111122' 
LUMCON,ioos:station:LUMCON:101:1,2015-04-17T23:00:00Z,29.2533,-90.6633,1.0,-9999.0,114.0,-9999.0,'1111122,1111122,1111122' 
LUMCON,ioos:station:LUMCON:101:1,2015-04-17T23:15:00Z,29.2533,-90.6633,1.0,-9999.0,113.0,-9999.0,'1111122,1111122,1111122' 
LUMCON,ioos:station:LUMCON:101:1,2015-04-17T23:30:00Z,29.2533,-90.6633,1.0,-9999.0,107.0,-9999.0,'1111122,1111122,1111122' 
LUMCON,ioos:station:LUMCON:101:1,2015-04-17T23:45:00Z,29.2533,-90.6633,1.0,5.1,99.0,-9999.0,'1111122,1111122,1111122' 
LUMCON,ioos:station:LUMCON:101:1,2015-04-18T00:00:00Z,29.2533,-90.6633,1.0,-9999.0,100.0,-9999.0,'1111122,1111122,1111122' 
LUMCON,ioos:station:LUMCON:101:1,2015-04-18T00:15:00Z,29.2533,-90.6633,1.0,-9999.0,131.0,-9999.0,'1111122,1111122,1111122' 
LUMCON,ioos:station:LUMCON:101:1,2015-04-18T00:30:00Z,29.2533,-90.6633,1.0,-9999.0,124.0,-9999.0,'1111122,1111122,1111122' 
LUMCON,ioos:station:LUMCON:101:1,2015-04-18T00:45:00Z,29.2533,-90.6633,1.0,3.3,133.0,-9999.0,'1111122,1111122,1111122' 
LUMCON,ioos:station:LUMCON:101:1,2015-04-18T01:00:00Z,29.2533,-90.6633,1.0,-9999.0,156.0,-9999.0,'1111122,1111122,1111122' 
LUMCON,ioos:station:LUMCON:101:1,2015-04-18T01:15:00Z,29.2533,-90.6633,1.0,-9999.0,200.0,-9999.0,'1111122,1111122,1111122' 
LUMCON,ioos:station:LUMCON:101:1,2015-04-18T01:30:00Z,29.2533,-90.6633,1.0,-9999.0,121.0,-9999.0,'1111122,1111122,1111122' 
LUMCON,ioos:station:LUMCON:101:1,2015-04-18T01:45:00Z,29.2533,-90.6633,1.0,4.4,118.0,-9999.0,'1111122,1111122,1111122' 
LUMCON,ioos:station:LUMCON:101:1,2015-04-18T02:00:00Z,29.2533,-90.6633,1.0,-9999.0,108.0,-9999.0,'1111122,1111122,1111122' 
LUMCON,ioos:station:LUMCON:101:1,2015-04-18T02:15:00Z,29.2533,-90.6633,1.0,-9999.0,89.0,-9999.0,'1111122,1111122,1111122' 
LUMCON,ioos:station:LUMCON:101:1,2015-04-18T02:30:00Z,29.2533,-90.6633,1.0,-9999.0,136.0,-9999.0,'1111122,1111122,1111122' 
LUMCON,ioos:station:LUMCON:101:1,2015-04-18T02:45:00Z,29.2533,-90.6633,1.0,6.1,358.0,-9999.0,'1111122,1111122,1111122' 
LUMCON,ioos:station:LUMCON:101:1,2015-04-18T03:00:00Z,29.2533,-90.6633,1.0,-9999.0,318.0,-9999.0,'1111122,1111122,1111122' 
LUMCON,ioos:station:LUMCON:101:1,2015-04-18T03:15:00Z,29.2533,-90.6633,1.0,-9999.0,328.0,-9999.0,'1111122,1111122,1111122' 
LUMCON,ioos:station:LUMCON:101:1,2015-04-18T03:30:00Z,29.2533,-90.6633,1.0,-9999.0,343.0,-9999.0,'1111122,1111122,1111122' 
LUMCON,ioos:station:LUMCON:101:1,2015-04-18T03:45:00Z,29.2533,-90.6633,1.0,13.3,348.0,-9999.0,'1111122,1111122,1111122' 
LUMCON,ioos:station:LUMCON:101:1,2015-04-18T04:00:00Z,29.2533,-90.6633,1.0,-9999.0,43.0,-9999.0,'1111122,1111122,1111122' 
LUMCON,ioos:station:LUMCON:101:1,2015-04-18T04:15:00Z,29.2533,-90.6633,1.0,-9999.0,33.0,-9999.0,'1111122,1111122,1111122' 
LUMCON,ioos:station:LUMCON:101:1,2015-04-18T04:30:00Z,29.2533,-90.6633,1.0,-9999.0,53.0,-9999.0,'1111122,1111122,1111122' 
LUMCON,ioos:station:LUMCON:101:1,2015-04-18T04:45:00Z,29.2533,-90.6633,1.0,9.4,46.0,-9999.0,'1111122,1111122,1111122' 
LUMCON,ioos:station:LUMCON:101:1,2015-04-18T05:00:00Z,29.2533,-90.6633,1.0,-9999.0,37.0,-9999.0,'1111122,1111122,1111122' 